sat.trackr.live / text

‹ back to catalog

STARLINK-32618

NORAD 62045 · 2024-216P

PAYLOAD ACTIVE UNKNOWN

§ Identity

Operator
Country
US
Launch date
2024-11-21
Launch site
AFETR
Launch vehicle
Mass (kg)
RCS (m²)

Purposes: comms

External: N2YO · Heavens-Above · Gunter

§ Orbital elements

Epoch: 2026-09-21T06:12:41.760288Z

Period
94.27 min
Inclination
42.9992°
Eccentricity
0.0001327
Mean motion
15.27582148 rev/d
Perigee alt
482.1 km
Apogee alt
484.0 km
Semi-major
6,861.2 km
B*
2.1977e-4
RAAN
231.9966°
Arg perigee
272.7281°
Mean anomaly
87.3418°
Rev number
10,378

§ Raw data

STARLINK-326181 62045U 24216P   26264.25881667  .00005791  00000+0  21977-3 0  99952 62045  42.9992 231.9966 0001327 272.7281  87.3418 15.27582148103785

JSON: /api/v1/satellites/62045 · /tle

For live sub-satellite position, see the globe view (requires WebGL).

§ Visibility from observer

Set your observer location to see the next 7 days of passes ≥ 10°. The values pass through the URL so the page stays shareable.

No JS? Fill the form by hand. The geolocation button needs JavaScript.